Location: Castle Hill Houses
(40.8186°N, 73.8497°W)
Time: 09:14:32
(UTC+00:00)

COSMOS 2455 - Pass Details

Date: 26 January 2020
Orbit: 902 x 907 km, 67.1° (Epoch: 17 February)

Event Time Altitude Azimuth Distance (km) Brightness Sun altitude
Exits shadow 10:15:33 30° 324° (NW) 1,559 3.7 -21.9°
Drops below altitude 10° 10:20:07 10° 12° (NNE) 2,596 5.3 -21.0°
Sets 10:22:57 0° 23° (NNE) 3,541 6.1 -20.5°
